Weather History for North Las Vegas, NV

Change the Weather History Date:

Wednesday, January 2, 2013

  Actual Average Record
Temperature  
Mean Temperature 40 °F -  
Max Temperature 50 °F 58 °F 66 °F (1998)
Min Temperature 30 °F 37 °F 10 °F (1954)
Degree Days  
Heating Degree Days 25    
Moisture  
Dew Point 12 °F    
Average Humidity 31    
Maximum Humidity 47    
Minimum Humidity 20    
Precipitation  
Precipitation 0.00 in - - ()
Sea Level Pressure  
Sea Level Pressure 30.31 in    
Wind  
Wind Speed 4 mph (NE)    
Max Wind Speed 12 mph    
Max Gust Speed -    
Visibility 10 miles    
Events      
Averages and records for this station are not official NWS values.
T = Trace of Precipitation, MM = Missing Value Source: NWS Daily Summary

Daily Weather History Graph

Daily Weather History Graph

Search for Another Location

Airport:

Trip Planner

Search our weather history database for the weather conditions in past years. The results will help you decide how hot, cold, wet, or windy it might be!

Date:

Astronomy

Jan. 02, 2013 Rise Set
Actual Time 6:52 AM PST 4:38 PM PST
Civil Twilight 6:23 AM PST 5:06 PM PST
Nautical Twilight 5:51 AM PST 5:38 PM PST
Astronomical Twilight 5:20 AM PST 6:09 PM PST
Moon 10:04 PM PST (1/2) 9:45 AM PST (1/2)
Length of Visible Light 10h 42m
Length of Day
9h 45m
Waning Gibbous, 74% of the Moon is Illuminated
Jan 2
Waning Gibbous
Jan 4
Last Quarter
Jan 11
New
Jan 18
First Quarter
Jan 26
Full

Hourly Weather History & Observations

Time (PST) Temp. Windchill Dew Point Humidity Pressure Visibility Wind Dir Wind Speed Gust Speed Precip Events Conditions
12:53 AM 37.0 °F 31.6 °F 10.9 °F 34% 30.38 in 10.0 mi NE 6.9 mph - N/A   Clear
1:53 AM 32.0 °F - 12.9 °F 45% 30.39 in 10.0 mi Calm Calm - N/A   Clear
2:53 AM 30.9 °F 26.2 °F 12.9 °F 47% 30.39 in 10.0 mi WNW 4.6 mph - N/A   Clear
3:53 AM 33.1 °F 28.7 °F 12.0 °F 42% 30.37 in 10.0 mi NNW 4.6 mph - N/A   Clear
4:53 AM 36.0 °F 29.0 °F 10.9 °F 36% 30.36 in 10.0 mi North 9.2 mph - N/A   Clear
5:53 AM 34.0 °F - 10.9 °F 38% 30.37 in 10.0 mi Calm Calm - N/A   Clear
6:53 AM 34.0 °F 25.5 °F 10.9 °F 38% 30.37 in 10.0 mi NW 11.5 mph - N/A   Clear
7:53 AM 36.0 °F 32.1 °F 10.9 °F 36% 30.37 in 10.0 mi WNW 4.6 mph - N/A   Clear
8:53 AM 39.0 °F - 10.9 °F 32% 30.38 in 10.0 mi Calm Calm - N/A   Clear
9:53 AM 42.1 °F - 10.9 °F 28% 30.38 in 10.0 mi Calm Calm - N/A   Clear
10:53 AM 45.0 °F 43.5 °F 10.9 °F 25% 30.34 in 10.0 mi ESE 3.5 mph - N/A   Clear
11:53 AM 46.0 °F 44.8 °F 10.9 °F 24% 30.31 in 10.0 mi Variable 3.5 mph - N/A   Clear
12:53 PM 46.9 °F - 10.9 °F 23% 30.25 in 10.0 mi Variable 4.6 mph - N/A   Clear
1:53 PM 48.9 °F - 10.9 °F 22% 30.25 in 10.0 mi Calm Calm - N/A   Clear
2:53 PM 50.0 °F - 10.4 °F 20% 30.16 in 10.0 mi ESE 4.6 mph - N/A   Clear
3:53 PM 50.0 °F - 12.0 °F 22% 30.23 in 10.0 mi South 3.5 mph - N/A   Clear
4:19 PM 50.0 °F - 10.4 °F 20% 30.15 in 10.0 mi Calm Calm - N/A   Clear
4:53 PM 48.9 °F - 12.0 °F 23% 30.22 in 10.0 mi WSW 3.5 mph - N/A   Clear
5:53 PM 48.0 °F - 12.0 °F 24% 30.24 in 10.0 mi ENE 4.6 mph - N/A   Clear
6:53 PM 46.9 °F - 12.0 °F 24% 30.26 in 10.0 mi NE 3.5 mph - N/A   Clear
7:53 PM 44.1 °F 40.1 °F 12.0 °F 27% 30.27 in 10.0 mi ESE 6.9 mph - N/A   Clear
8:53 PM 41.0 °F 39.0 °F 12.0 °F 31% 30.30 in 10.0 mi SSE 3.5 mph - N/A   Clear
9:53 PM 39.9 °F - 12.9 °F 33% 30.30 in 10.0 mi Calm Calm - N/A   Clear
10:53 PM 35.1 °F - 15.1 °F 44% 30.31 in 10.0 mi Calm Calm - N/A   Clear
11:53 PM 37.9 °F - 14.0 °F 38% 30.29 in 10.0 mi Calm Calm - N/A   Clear